Total_Precipitation_Accumulation
0.26 0.23 0.24 0.22 0.19 0.16 0.13 0.10 0.07 0.06 0.05 0.04 0.03 0.02 0.02 0.01 0.01 0.00 0.00 0.00 0.00 0.01 0.01 0.03 0.04 0.06 0.09 0.13 0.16 0.17 0.15 0.11 0.09 0.08 0.08 0.07 0.06 0.07 0.08 0.09 0.10 0.11 0.12
0.32 0.31 0.27 0.24 0.20 0.18 0.16 0.13 0.10 0.09 0.07 0.06 0.05 0.03 0.03 0.02 0.02 0.02 0.01 0.01 0.00 0.00 0.01 0.02 0.04 0.09 0.15 0.20 0.23 0.22 0.19 0.14 0.12 0.10 0.10 0.09 0.09 0.09 0.10 0.11 0.12 0.13 0.14
0.39 0.36 0.32 0.27 0.22 0.22 0.21 0.20 0.18 0.15 0.11 0.08 0.06 0.05 0.04 0.04 0.03 0.03 0.03 0.02 0.01 0.01 0.01 0.02 0.05 0.10 0.16 0.20 0.24 0.27 0.24 0.19 0.16 0.13 0.12 0.12 0.12 0.12 0.12 0.13 0.14 0.15 0.17
0.53 0.48 0.37 0.28 0.31 0.33 0.31 0.28 0.24 0.20 0.15 0.12 0.10 0.08 0.07 0.05 0.04 0.04 0.03 0.03 0.02 0.02 0.01 0.02 0.04 0.08 0.13 0.18 0.25 0.32 0.32 0.28 0.23 0.19 0.15 0.13 0.14 0.13 0.13 0.14 0.16 0.17 0.19
0.62 0.58 0.46 0.39 0.43 0.41 0.34 0.30 0.25 0.24 0.21 0.19 0.17 0.15 0.12 0.09 0.07 0.06 0.05 0.04 0.04 0.03 0.03 0.03 0.04 0.05 0.08 0.11 0.16 0.27 0.35 0.37 0.31 0.23 0.19 0.17 0.15 0.15 0.15 0.17 0.18 0.19 0.20
0.66 0.63 0.56 0.53 0.56 0.52 0.43 0.38 0.33 0.31 0.28 0.29 0.27 0.19 0.15 0.14 0.11 0.09 0.08 0.07 0.07 0.07 0.07 0.06 0.06 0.05 0.05 0.07 0.09 0.16 0.26 0.36 0.36 0.30 0.25 0.21 0.20 0.20 0.21 0.22 0.23 0.23 0.23
0.87 0.79 0.65 0.64 0.66 0.60 0.55 0.53 0.51 0.48 0.42 0.41 0.36 0.25 0.18 0.15 0.12 0.09 0.08 0.08 0.08 0.08 0.08 0.08 0.08 0.06 0.04 0.05 0.07 0.08 0.15 0.27 0.35 0.35 0.30 0.26 0.25 0.24 0.26 0.31 0.33 0.34 0.35
0.97 0.96 0.92 0.87 0.83 0.76 0.70 0.68 0.67 0.61 0.56 0.56 0.51 0.46 0.30 0.19 0.13 0.10 0.10 0.09 0.09 0.09 0.08 0.08 0.08 0.07 0.06 0.05 0.06 0.06 0.10 0.18 0.28 0.36 0.36 0.34 0.30 0.31 0.34 0.39 0.43 0.44 0.46
1.09 1.07 1.07 1.08 1.07 1.02 0.91 0.87 0.86 0.80 0.74 0.71 0.68 0.68 0.47 0.27 0.18 0.14 0.12 0.11 0.11 0.10 0.10 0.10 0.09 0.09 0.08 0.07 0.07 0.08 0.09 0.12 0.19 0.33 0.45 0.46 0.43 0.42 0.45 0.51 0.56 0.60 0.59
1.23 1.18 1.17 1.17 1.17 1.11 1.03 1.07 1.10 1.02 0.98 0.90 0.85 0.75 0.61 0.43 0.36 0.24 0.15 0.14 0.14 0.12 0.12 0.13 0.12 0.11 0.10 0.10 0.11 0.13 0.15 0.16 0.21 0.33 0.50 0.59 0.58 0.59 0.66 0.72 0.80 0.81 0.75
1.27 1.21 1.19 1.20 1.18 1.15 1.08 1.10 1.15 1.16 1.13 1.06 0.96 0.89 0.85 0.67 0.49 0.42 0.28 0.18 0.18 0.17 0.17 0.17 0.15 0.14 0.14 0.15 0.16 0.20 0.26 0.28 0.32 0.41 0.53 0.65 0.71 0.78 0.86 0.92 0.96 0.97 0.92
1.24 1.18 1.15 1.17 1.19 1.18 1.13 1.13 1.18 1.22 1.22 1.14 1.03 0.92 0.88 0.79 0.64 0.60 0.51 0.35 0.30 0.25 0.25 0.25 0.24 0.23 0.23 0.26 0.30 0.38 0.40 0.41 0.45 0.51 0.61 0.71 0.80 0.86 0.94 1.01 1.06 1.08 1.06
1.22 1.16 1.13 1.14 1.17 1.19 1.21 1.27 1.26 1.22 1.24 1.22 1.16 1.07 0.99 0.89 0.82 0.82 0.78 0.61 0.49 0.38 0.34 0.34 0.34 0.35 0.37 0.39 0.43 0.55 0.56 0.58 0.60 0.63 0.72 0.83 0.87 0.86 0.86 0.91 1.01 1.08 1.11
1.14 1.16 1.20 1.23 1.25 1.25 1.24 1.24 1.21 1.16 1.17 1.15 1.13 1.11 1.05 0.96 0.95 0.96 0.96 0.98 0.88 0.68 0.56 0.51 0.48 0.50 0.51 0.54 0.60 0.68 0.63 0.69 0.67 0.67 0.74 0.81 0.79 0.74 0.70 0.73 0.85 0.96 1.01
1.07 1.11 1.16 1.20 1.21 1.20 1.17 1.16 1.13 1.09 1.11 1.10 1.07 1.06 1.03 0.96 0.96 0.96 0.97 1.04 1.13 1.00 0.73 0.54 0.51 0.52 0.55 0.59 0.67 0.66 0.60 0.71 0.72 0.67 0.68 0.69 0.66 0.62 0.59 0.59 0.64 0.73 0.77
0.90 0.93 1.00 1.06 1.07 1.07 1.05 1.05 1.03 1.01 1.03 1.01 0.99 1.02 1.00 0.93 0.92 0.93 0.97 1.01 1.09 1.14 0.96 0.63 0.53 0.53 0.57 0.59 0.66 0.60 0.56 0.66 0.64 0.62 0.61 0.59 0.57 0.54 0.51 0.50 0.51 0.57 0.62
0.82 0.86 0.88 0.93 0.95 0.95 0.96 0.95 0.92 0.90 0.91 0.90 0.90 0.92 0.92 0.91 0.93 0.93 0.94 0.98 1.03 1.10 1.08 0.80 0.65 0.64 0.68 0.67 0.65 0.59 0.53 0.51 0.50 0.57 0.54 0.50 0.49 0.46 0.45 0.44 0.44 0.45 0.47
0.71 0.70 0.74 0.77 0.77 0.78 0.79 0.81 0.82 0.80 0.79 0.78 0.78 0.82 0.83 0.85 0.86 0.88 0.93 0.97 0.99 1.01 1.04 0.91 0.71 0.63 0.61 0.59 0.57 0.55 0.50 0.45 0.41 0.49 0.47 0.44 0.42 0.38 0.36 0.36 0.39 0.42 0.43
0.72 0.64 0.61 0.63 0.64 0.65 0.65 0.67 0.69 0.70 0.71 0.70 0.70 0.72 0.74 0.79 0.84 0.84 0.85 0.88 0.88 0.88 0.90 0.88 0.72 0.58 0.52 0.49 0.49 0.45 0.40 0.38 0.35 0.38 0.40 0.38 0.38 0.37 0.36 0.35 0.37 0.37 0.36
0.65 0.61 0.56 0.54 0.53 0.56 0.60 0.62 0.63 0.65 0.66 0.66 0.67 0.69 0.70 0.72 0.74 0.77 0.80 0.81 0.81 0.80 0.81 0.83 0.77 0.67 0.59 0.53 0.54 0.50 0.44 0.38 0.35 0.32 0.37 0.36 0.37 0.36 0.32 0.29 0.27 0.28 0.29
0.52 0.53 0.53 0.53 0.50 0.50 0.52 0.56 0.59 0.63 0.65 0.67 0.68 0.68 0.70 0.75 0.76 0.75 0.74 0.73 0.74 0.78 0.81 0.87 0.83 0.70 0.57 0.51 0.49 0.44 0.43 0.42 0.41 0.38 0.38 0.34 0.30 0.27 0.24 0.24 0.25 0.26 0.28
0.42 0.46 0.50 0.54 0.58 0.60 0.71 0.68 0.62 0.63 0.67 0.67 0.66 0.64 0.63 0.66 0.65 0.65 0.64 0.64 0.69 0.76 0.86 0.90 0.78 0.62 0.47 0.41 0.41 0.45 0.50 0.54 0.47 0.32 0.32 0.32 0.30 0.28 0.23 0.20 0.26 0.28 0.29
0.50 0.54 0.59 0.63 0.67 0.75 0.83 0.74 0.70 0.62 0.64 0.65 0.62 0.58 0.53 0.51 0.53 0.46 0.48 0.52 0.55 0.62 0.65 0.59 0.52 0.45 0.41 0.38 0.47 0.55 0.54 0.51 0.40 0.28 0.34 0.38 0.33 0.30 0.24 0.23 0.28 0.27 0.27
0.74 0.78 0.81 0.83 0.82 0.82 0.80 0.71 0.68 0.60 0.57 0.53 0.48 0.44 0.40 0.36 0.35 0.36 0.38 0.46 0.45 0.43 0.42 0.38 0.36 0.33 0.33 0.36 0.45 0.55 0.56 0.54 0.43 0.34 0.34 0.37 0.29 0.26 0.22 0.22 0.28 0.29 0.28
0.86 0.83 0.80 0.79 0.75 0.70 0.65 0.56 0.48 0.42 0.42 0.41 0.36 0.33 0.33 0.31 0.36 0.42 0.42 0.44 0.35 0.30 0.33 0.38 0.40 0.38 0.39 0.38 0.40 0.51 0.60 0.66 0.57 0.37 0.29 0.30 0.26 0.25 0.24 0.23 0.25 0.30 0.30
0.65 0.59 0.55 0.52 0.48 0.45 0.43 0.38 0.35 0.30 0.29 0.27 0.27 0.28 0.32 0.32 0.38 0.45 0.42 0.37 0.31 0.27 0.29 0.33 0.36 0.38 0.37 0.38 0.43 0.43 0.57 0.78 0.67 0.46 0.25 0.28 0.30 0.35 0.48 0.28 0.23 0.25 0.27